Regional Weather Roundup
Issued by NWS San Diego, CA

Current Version | Previous Version | Text Only | Print | Product List | Glossary On
Versions: 1 2 3 4 5 6 7 8 9 10 11 12 13 14 15 16 17 18 19 20 21 22 23 24 25 26 27 28 29 30 31 32 33 34 35 36 37 38 39 40 41 42 43 44 45 46 47 48 49 50
000
ASUS46 KSGX 110211
RWRSGX

SAN DIEGO HOURLY WEATHER ROUNDUP
NATIONAL WEATHER SERVICE SAN DIEGO CA
600 PM PST SUN DEC 10 2017

NOTE: "FAIR" INDICATES FEW OR NO CLOUDS BELOW 12,000 FEET WITH NO
SIGNIFICANT WEATHER AND/OR OBSTRUCTIONS TO VISIBILITY.

CAZ042-043-060-061-PZZ750-775-110300-

GREATER SAN DIEGO AREA

CITY           SKY/WX    TMP DP  RH WIND       PRES   REMARKS
SAN DIEGO AP   MOCLDY    68  25  19 CALM      30.12R
NATIONAL CITY    N/A     68  32  26 CALM      30.13R
CHULA VISTA      N/A     66  34  31 CALM      30.02R
IMPERIAL BEACH MOCLDY    68  22  17 N5        30.12R
BROWN FIELD    MOCLDY    70   9   9 SE6       30.12R
MIRAMAR MCAS   MOCLDY    63  20  19 E7        30.12R
MONTGOMERY FLD MOCLDY    68  17  14 E3        30.12R
GILLESPIE FLD  CLEAR     68  18  14 CALM      30.12R

$$

NORTH SAN DIEGO COUNTY

CITY           SKY/WX    TMP DP  RH WIND       PRES   REMARKS
CAMP PENDLETON CLOUDY    61  39  44 CALM      30.11R
OCEANSIDE AP   CLOUDY    61  41  47 CALM      30.10R
OCEANSIDE HBR    N/A     64  55  73 NE1       30.13R
VISTA            N/A     67  35  30 CALM      30.08R
CARLSBAD       CLOUDY    67  39  35 N3        30.10R
DEL MAR          N/A     64  37  36 CALM      30.12R
LA JOLLA SCRIP   N/A     69  27  21 NE5       30.10R
FALLBROOK        N/A     72  29  20 CALM      30.12R
ESCONDIDO        N/A     72  15  11 SE1       30.12R
SAN MARCOS       N/A     73  16  11 SE1       30.12R
POWAY            N/A     74  16  11 NE6       30.12R

$$

EAST SAN DIEGO COUNTY

CITY           SKY/WX    TMP DP  RH WIND       PRES   REMARKS
RAMONA         CLOUDY    68   9  10 E6        30.15R
SANTEE LAKES     N/A     70  22  16 CALM      30.09R
LA MESA          N/A     69  22  17 CALM      30.05R
JAMUL            N/A     64  20  18 CALM      30.11R
DESCANSO N       N/A     60  14  16 NE10      30.08
MT. LAGUNA OBS   N/A     46   7  20 E16       30.19R

$$

ORANGE COUNTY AND THE LOS ANGELES BASIN

CITY           SKY/WX    TMP DP  RH WIND       PRES   REMARKS
JOHN WAYNE AP  CLOUDY    78  10   7 E9        30.10R
LAGUNA BEACH     N/A     67  54  63 CALM      30.06R
LAKE FOREST FR   N/A     73   8   8 CALM      29.97R
HUNTINGTON BCH   N/A     74  23  15 CALM      30.10R
LOS ALAMITOS   FAIR      76   8   7 E9        30.09R
FULLERTON      CLOUDY    75  15  10 NE6       30.09R
LONG BEACH     CLOUDY    77  17  10 CALM      30.10R
L.A. AP        CLOUDY    75  14  10 NE3       30.10R
L.A. DOWNTOWN  CLOUDY    69  24  18 CALM      30.09R

$$

THE INLAND EMPIRE

CITY           SKY/WX    TMP DP  RH WIND       PRES   REMARKS
CORONA         CLOUDY    73  11   9 SE7       30.14R
CHINO          CLOUDY    74  10   8 E9        30.14R
ONTARIO        CLOUDY    74   2   6 NE6       30.13R
SAN BERNARDINO CLOUDY    63  16  16 CALM      30.15R
RIVERSIDE AP   CLOUDY    72   8   8 E5        30.15R
MORENO VALLEY    N/A     66  20  17 CALM      28.28R
MARCH ARB      CLOUDY    71   4   7 NE10      30.17R
HORSETHIEF CYN   N/A     69   6   8 CALM      30.16R
PERRIS           N/A     71  16  12 E10         N/A
HEMET EAST       N/A     65   5   9 CALM      30.20R
FRENCH VALLEY  FAIR      70   7   8 E14G20    30.16R
TEMECULA         N/A     73  17  12 E3        30.20R

$$

SAN BERNARDINO AND RIVERSIDE COUNTY MOUNTAINS

CITY           SKY/WX    TMP DP  RH WIND       PRES   REMARKS
BIG BEAR AP    CLOUDY    43   3  19 E8        30.39R

$$

SOUTHERN DESERT INCLUDING THE COACHELLA VALLEY

CITY           SKY/WX    TMP DP  RH WIND       PRES   REMARKS
PALM SPRINGS   CLOUDY    74   6   7 NW7       30.21R
THOUSAND PALMS   N/A     68  23  18 N1        30.16R
PALM DESERT      N/A     65  41  40 CALM        N/A
THERMAL        CLOUDY    63  34  33 CALM      30.15R
BLYTHE         CLOUDY    66   7  10 N10       30.17R
IMPERIAL AP    MOCLDY    63  25  23 SW5       30.16R
EL CENTRO NAS  MOCLDY    61  20  20 W7        30.18R
YUMA AZ        CLOUDY    63  19  18 W5        30.15R
MEXICALI       CLOUDY    63  23  22 W6        30.17

$$

UPPER DESERT

CITY           SKY/WX    TMP DP  RH WIND       PRES   REMARKS
HESPERIA         N/A     56   6  13 CALM      30.45R
APPLE VALLEY     N/A     58   2  10 N6        30.37R
PALMDALE       CLOUDY    52   5  15 NE7       30.29R
LANCASTER      CLOUDY    48   1  14 NW3       30.29R
EDWARDS AFB    MOCLDY    51  -2  11 NE3       30.27R
DAGGETT        CLOUDY    50   3  14 CALM      30.28S
29 PALMS N     CLOUDY    57  -3   8 W10       30.33R
NEEDLES        MOCLDY    66   6   9 N12       30.22S

$$

REGIONAL REPORTS

CITY           SKY/WX    TMP DP  RH WIND       PRES   REMARKS
SANTA BARBARA  CLOUDY    60  34  37 NE3       30.09S SMOKE
SANDBERG       CLOUDY    56  -3   9 E20       30.31R
LAS VEGAS NV   CLOUDY    55   7  14 S5        30.31S
PHOENIX AZ     CLOUDY    68  10  10 E9        30.15R
TIJUANA        CLOUDY    73   7   7 E12       30.14R
ENSENADA NW      N/A     71  32  24 CALM      30.03R

$$

OFFSHORE ISLANDS

CITY           SKY/WX    TMP DP  RH WIND       PRES   REMARKS
CATALINA ARPT  CLOUDY    71   9   9 W6        30.16R
SAN NICOLAS IS CLOUDY    70  32  24 CALM      30.11S

$$

MARINE AND OFFSHORE BUOY REPORTS

STATION/POSITION SKY/WX   TEMP    WIND        PRES    VSBY  SWELL
                          AIR SEA DIR/SP/G                  HT/PER/DIR
                          (F)     (DEG/KT/KT) (MB)    (MI)  (FT/S/D)
TANNER BANKS               64 63              1018.6R
S CLEMENTE BASIN           67 63   10/  6/  8 1019.1R         3/240/14
SAN NICOLAS IS.               62                N/A           3/280/13
SO. S. ROSA ISLA           65 60  360/  6/  8 1018.9          5/280/14
W. S. BARBARA CH           66 60  340/  4/  6 1019.1
M. S. BARBARA CH           63 61  270/  4/  6 1020.1R         3/250/12
S. MONICA BASIN               60  270/  4/  6 1018.7R         3/230/15
S PEDRO CHANNEL               62                N/A           2/260/13
CMP PENDLETON NS              63                N/A           2/230/14
OCEANSIDE OFFSHR              63                N/A           2/200/15
TORREY PINES OTR              63                N/A           2/230/14
SAN DIEGO BAY                 65              1019.9R
POINT LOMA SOUTH              65                N/A           3/240/14

$$




USA.gov is the U.S. government's official web portal to all federal, state and local government web resources and services.